Location: Rancho Del Sol Observatory
(38.7214°N, 120.6350°W)
Time: 06:01:04
(UTC-08:00)

Courier 1B Rocket - Pass Details

Date: 03 February 2020
Orbit: 920 x 1202 km, 28.2° (Epoch: 29 February)

Event Time Altitude Azimuth Distance (km) Brightness Sun altitude
Rises 10:04:08 0° 255° (WSW) 4,091 8.1 26.7°
Reaches altitude 10° 10:07:14 10° 248° (WSW) 3,118 7.6 27.0°
Maximum altitude 10:14:13 37° 184° (S) 1,720 7.5 27.8°
Drops below altitude 10° 10:20:56 10° 120° (ESE) 2,991 8.7 28.5°
Sets 10:23:51 0° 112° (ESE) 3,908 8.9 28.8°
